Russell, KS

9:22 AM CDT on April 30, 2017 (GMT -0500)
Russell Municipal

Weather History for KRSL - December, 2011

Change the Weather History Date:

Sunday, December 4, 2011

  Actual Average Record
Temperature  
Mean Temperature 26 °F -  
Max Temperature 33 °F 48 °F 73 °F (1965)
Min Temperature 19 °F 23 °F 7 °F (1964)
Degree Days  
Heating Degree Days 39    
Moisture  
Dew Point 21 °F    
Average Humidity 86    
Maximum Humidity 92    
Minimum Humidity 70    
Precipitation  
Precipitation 0.00 in - - ()
Sea Level Pressure  
Sea Level Pressure 30.27 in    
Wind  
Wind Speed 10 mph (WNW)    
Max Wind Speed 17 mph    
Max Gust Speed -    
Visibility 10 miles    
Events      
Averages and records for this station are not official NWS values.
T = Trace of Precipitation, MM = Missing Value Source: NWS Daily Summary

Daily Weather History Graph

Daily Weather History Graph

Search for Another Location

Airport or City:

Trip Planner

Search our weather history database for the weather conditions in past years. The results will help you decide how hot, cold, wet, or windy it might be!

Date:

Astronomy

Dec. 04, 2011 Rise Set
Actual Time 7:37 AM CST 5:13 PM CST
Civil Twilight 7:07 AM CST 5:42 PM CST
Nautical Twilight 6:34 AM CST 6:15 PM CST
Astronomical Twilight 6:02 AM CST 6:48 PM CST
Moon 1:42 PM CST (12/4) 2:06 AM CST (12/4)
Length of Visible Light 10h 34m
Length of Day
9h 35m
Waxing Gibbous, 72% of the Moon is Illuminated
Dec 4
Waxing Gibbous
Dec 10
Full
Dec 17
Last Quarter
Dec 24
New
Jan 1
First Quarter

Hourly Weather History & Observations

Time (CST) Temp. Windchill Dew Point Humidity Pressure Visibility Wind Dir Wind Speed Gust Speed Precip Events Conditions
12:53 AM 25.0 °F 14.8 °F 23.0 °F 92% 30.19 in 10.0 mi WNW 10.4 mph - N/A   Clear
1:53 AM 24.1 °F 16.0 °F 21.9 °F 91% 30.19 in 10.0 mi WNW 6.9 mph - N/A   Clear
2:53 AM 21.9 °F 13.4 °F 19.9 °F 92% 30.21 in 10.0 mi WNW 6.9 mph - N/A   Clear
3:53 AM 21.0 °F 13.4 °F 18.0 °F 88% 30.20 in 10.0 mi WNW 5.8 mph - N/A   Clear
4:53 AM 21.0 °F 11.4 °F 18.0 °F 88% 30.19 in 10.0 mi WNW 8.1 mph - N/A   Clear
5:53 AM 19.0 °F 8.2 °F 17.1 °F 92% 30.21 in 10.0 mi WSW 9.2 mph - N/A   Clear
6:53 AM 19.9 °F 12.1 °F 18.0 °F 92% 30.21 in 10.0 mi West 5.8 mph - N/A   Clear
8:53 AM 21.9 °F 9.8 °F 19.0 °F 89% 30.26 in 9.0 mi West 12.7 mph - N/A   Clear
9:53 AM 24.1 °F 13.7 °F 21.0 °F 88% 30.27 in 10.0 mi WSW 10.4 mph - N/A   Clear
10:53 AM 28.0 °F 18.1 °F 24.1 °F 85% 30.27 in 10.0 mi WSW 11.5 mph - N/A   Clear
11:53 AM 30.0 °F 20.0 °F 27.0 °F 88% 30.26 in 10.0 mi WSW 12.7 mph - N/A   Overcast
12:53 PM 32.0 °F 21.6 °F 27.0 °F 82% 30.24 in 10.0 mi West 15.0 mph - N/A   Overcast
3:53 PM 33.1 °F 25.5 °F 24.1 °F 70% 30.25 in 10.0 mi WNW 9.2 mph - N/A   Clear
4:53 PM 30.0 °F 24.1 °F 24.1 °F 79% 30.27 in 10.0 mi NW 5.8 mph - N/A   Mostly Cloudy
5:53 PM 26.1 °F 18.4 °F 21.9 °F 84% 30.30 in 10.0 mi NW 6.9 mph - N/A   Scattered Clouds
6:53 PM 23.0 °F 14.7 °F 19.4 °F 86% 30.24 in 10.0 mi NNW 6.9 mph - N/A   Scattered Clouds
7:53 PM 25.0 °F 14.2 °F 21.0 °F 85% 30.33 in 10.0 mi NNW 11.5 mph - N/A   Clear
8:53 PM 23.0 °F 11.1 °F 19.9 °F 88% 30.35 in 10.0 mi NNW 12.7 mph - N/A   Clear
9:53 PM 23.0 °F 10.1 °F 18.0 °F 81% 30.38 in 10.0 mi NNW 15.0 mph - N/A   Clear
10:53 PM 21.9 °F 7.8 °F 17.1 °F 82% 30.41 in 10.0 mi NNW 17.3 mph - N/A   Clear
11:53 PM 21.9 °F 8.7 °F 17.1 °F 82% 30.42 in 10.0 mi North 15.0 mph - N/A   Clear